FW6259 Weather Reports


time (UTC)temp
C
wind
direction
speed
KPH
gust
KPH
rain 1hr
cm
rain 24hr
cm
rain mn
cm
humidity
%
barometer
mb
20260903154554 -1 20 0.0 0.0 0.00 0.03 0.00 93 1025.0
20260903153045 -1 20 0.0 0.0 0.00 0.03 0.00 93 1024.9
20260903151556 -1 20 0.0 0.0 0.00 0.03 0.00 92 1024.8
20260903150110 -1 20 0.0 0.0 0.00 0.03 0.00 93 1024.9
20260903144548 -1 20 0.0 0.0 0.00 0.03 0.00 94 1024.8
20260903143100 -1 20 0.0 0.0 0.00 0.03 0.00 93 1024.8
20260903141559 -1 20 0.0 0.0 0.00 0.03 0.00 94 1024.5
20260903140047 -2 20 0.0 0.0 0.00 0.03 0.00 93 1024.3
20260903134503 -2 20 0.0 0.0 0.00 0.03 0.00 93 1024.2
20260903133053 -2 20 0.0 0.0 0.00 0.03 0.00 91 1024.4
20260903131547 -1 20 0.0 0.0 0.00 0.03 0.00 94 1024.1
20260903130105 -2 20 0.0 0.0 0.00 0.03 0.00 94 1024.0
20260903124602 -1 20 0.0 0.0 0.00 0.03 0.00 95 1023.9
20260903123044 -1 20 0.0 0.0 0.00 0.03 0.00 92 1023.8
20260903121600 -1 21 0.0 0.0 0.00 0.03 0.00 92 1023.6
20260903120053 -1 20 0.0 0.0 0.00 0.03 0.00 92 1023.6
20260903114502 -1 20 0.0 0.0 0.00 0.03 0.00 92 1023.3
20260903113105 -1 20 0.0 0.0 0.00 0.03 0.00 92 1023.2
20260903111614 0 20 0.0 0.0 0.00 0.03 0.00 93 1023.3
20260903110047 0 20 0.0 0.0 0.00 0.03 0.00 90 1023.2
20260903104501 0 20 0.0 0.0 0.00 0.03 0.00 92 1023.2
20260903103104 -1 20 0.0 1.6 0.00 0.03 0.00 92 1023.0
20260903101556 -1 20 0.0 1.6 0.00 0.03 0.00 91 1022.9
20260903100002 -1 20 0.0 0.0 0.00 0.03 0.00 92 1022.7
20260903094600 0 20 0.0 1.6 0.00 0.03 0.00 89 1022.6
20260903093121 0 89 0.0 0.0 0.00 0.03 0.00 88 1022.5
20260903091600 0 89 0.0 0.0 0.00 0.03 0.00 89 1022.2
20260903090047 0 14 0.0 1.6 0.00 0.03 0.00 89 1022.0
20260903084547 0 356 0.0 0.0 0.00 0.03 0.00 90 1021.9
20260903083100 0 356 0.0 0.0 0.00 0.03 0.00 87 1022.0
20260903081554 0 355 0.0 0.0 0.00 0.03 0.00 83 1021.9
20260903080044 0 356 0.0 0.0 0.00 0.03 0.00 88 1021.7
20260903074558 0 356 0.0 1.6 0.00 0.03 0.03 80 1021.4
20260903073053 2 356 0.0 0.0 0.00 0.03 0.03 81 1021.5
20260903071610 2 355 0.0 1.6 0.00 0.03 0.03 79 1021.3
20260903070104 2 5 1.6 3.2 0.00 0.03 0.03 72 1021.2
20260903064604 2 327 0.0 3.2 0.00 0.03 0.03 66 1020.9
20260903063045 3 192 0.0 3.2 0.00 0.03 0.03 63 1020.5
20260903061603 4 349 0.0 3.2 0.00 0.03 0.03 59 1020.1
20260903060050 5 286 0.0 1.6 0.00 0.03 0.03 53 1020.0
20260903054548 5 286 0.0 1.6 0.00 0.03 0.03 51 1019.8
20260903053056 6 288 0.0 3.2 0.00 0.03 0.03 48 1019.6
20260903051553 6 272 0.0 4.8 0.00 0.03 0.03 44 1019.4
20260903050100 7 257 0.0 1.6 0.00 0.03 0.03 42 1019.3
20260903044602 8 257 0.0 1.6 0.00 0.03 0.03 40 1019.1
20260903043052 10 257 1.6 3.2 0.00 0.03 0.03 37 1018.9
20260903041558 11 262 1.6 6.4 0.00 0.03 0.03 34 1018.8
20260903040109 11 274 1.6 9.7 0.00 0.03 0.03 33 1018.6
20260903034606 12 268 4.8 12.9 0.00 0.03 0.03 31 1018.4
20260903033045 13 266 3.2 9.7 0.00 0.03 0.03 33 1018.2
20260903031503 13 301 8.0 16.1 0.00 0.03 0.03 34 1017.9
20260903030053 14 262 3.2 11.3 0.00 0.03 0.03 36 1017.8
20260903024505 14 320 1.6 20.9 0.00 0.03 0.03 45 1017.5
20260903023100 15 68 0.0 4.8 0.00 0.03 0.03 45 1017.4
20260903021555 15 165 4.8 9.7 0.00 0.03 0.03 38 1017.1
20260903014619 15 69 1.6 8.0 0.00 0.03 0.03 44 1017.2
20260903013101 15 116 1.6 8.0 0.00 0.03 0.03 46 1016.9
20260903011549 15 248 1.6 12.9 0.00 0.03 0.03 48 1016.8
20260903010058 14 73 1.6 8.0 0.00 0.03 0.03 49 1016.7
20260903004558 14 46 3.2 11.3 0.00 0.03 0.03 49 1016.6
20260903003105 13 25 4.8 9.7 0.00 0.03 0.03 52 1016.5
20260903001501 13 77 1.6 11.3 0.00 0.03 0.03 55 1016.3
20260902234552 12 72 1.6 9.7 0.00 0.03 0.03 57 1016.4
20260902233101 13 37 4.8 11.3 0.00 0.03 0.03 57 1016.2
20260902231555 12 85 3.2 11.3 0.00 0.03 0.03 60 1016.0
20260902230049 12 101 3.2 9.7 0.00 0.03 0.03 62 1015.9
20260902224507 11 136 3.2 9.7 0.00 0.03 0.03 65 1015.9
20260902223107 11 196 3.2 9.7 0.00 0.03 0.03 66 1015.6
20260902221549 11 71 3.2 8.0 0.00 0.03 0.03 70 1015.8
20260902220101 11 195 3.2 11.3 0.00 0.03 0.03 69 1015.7
20260902214620 11 167 3.2 4.8 0.00 0.03 0.03 71 1015.7
20260902213051 10 217 1.6 9.7 0.00 0.03 0.03 74 1015.5
20260902211501 10 125 3.2 6.4 0.00 0.03 0.03 75 1015.5
20260902210055 8 68 3.2 6.4 0.00 0.03 0.03 77 1015.5
20260902204550 8 211 1.6 6.4 0.00 0.03 0.03 82 1015.3
20260902203002 7 309 0.0 4.8 0.00 0.03 0.03 83 1015.3
20260902201500 6 195 1.6 4.8 0.00 0.03 0.03 86 1015.1
20260902200150 5 227 1.6 6.4 0.00 0.03 0.03 91 1014.8
20260902194503 3 232 1.6 6.4 0.00 0.03 0.03 93 1014.6
20260902193056 3 266 3.2 9.7 0.03 0.03 0.03 93 1014.5
20260902191550 2 229 3.2 8.0 0.03 0.03 0.03 93 1014.3
20260902190144 2 80 0.0 4.8 0.03 0.03 0.03 92 1013.5
20260902184501 3 210 0.0 3.2 0.00 0.00 0.00 88 1013.9
20260902183052 3 250 0.0 0.0 0.00 0.00 0.00 87 1013.5
20260902181549 3 251 0.0 3.2 0.00 0.00 0.00 86 1013.2
20260902180005 2 253 0.0 1.6 0.00 0.00 0.00 88 1012.8
20260902174556 2 241 1.6 3.2 0.00 0.00 0.00 89 1012.6
20260902173050 2 269 0.0 3.2 0.00 0.00 0.00 91 1012.4
20260902171501 1 266 0.0 1.6 0.00 0.00 0.00 90 1012.2
20260902170054 1 113 0.0 3.2 0.00 0.00 0.00 90 1011.9
20260902164553 1 227 0.0 0.0 0.00 0.00 0.00 93 1011.9
20260902163059 0 116 0.0 0.0 0.00 0.00 0.00 94 1011.6
20260902161551 0 245 0.0 0.0 0.00 0.00 0.00 96 1011.5
20260902160050 -1 245 0.0 0.0 0.00 0.00 0.00 95 1011.4
20260902154604 -2 245 0.0 0.0 0.00 0.00 0.00 95 1011.3